Weather History for PAFA - September, 2014

Change the Weather History Date:

Friday, September 12, 2014

  Actual Average Record
Temperature  
Mean Temperature 56 °F 47 °F  
Max Temperature 72 °F 57 °F 78 °F (1910)
Min Temperature 39 °F 37 °F 19 °F (1927)
Degree Days  
Heating Degree Days 9 18  
Month to date heating degree days 193 190  
Since 1 July heating degree days 514 579  
Cooling Degree Days 0 0  
Month to date cooling degree days 0 0  
Year to date cooling degree days 27 61  
Growing Degree Days 6 (Base 50)    
Moisture  
Dew Point 41 °F    
Average Humidity 58    
Maximum Humidity 86    
Minimum Humidity 23    
Precipitation  
Precipitation 0.00 in 0.04 in 1.45 in (1915)
Month to date precipitation 2.24 0.53  
Year to date precipitation 14.96 8.10  
Snow  
Snow 0.00 in 0.00 in 3.80 in (1992)
Month to date snowfall 0.0 0.3  
Since 1 July snowfall 0.0 0.3  
Since 1 September snowfall 0.0 0.3  
Snow Depth 0.00 in    
Sea Level Pressure  
Sea Level Pressure 29.81 in    
Wind  
Wind Speed 5 mph (ENE)    
Max Wind Speed 10 mph    
Max Gust Speed -    
Visibility 10 miles    
Events      
T = Trace of Precipitation, MM = Missing Value Source: NWS Daily Summary

Daily Weather History Graph

Daily Weather History Graph

Search for Another Location

Airport or City:

Trip Planner

Search our weather history database for the weather conditions in past years. The results will help you decide how hot, cold, wet, or windy it might be!

Date:

Astronomy

Sep. 12, 2014 Rise Set
Actual Time 7:05 AM AKDT 8:28 PM AKDT
Civil Twilight 6:14 AM AKDT 9:18 PM AKDT
Nautical Twilight 5:08 AM AKDT 10:23 PM AKDT
Astronomical Twilight 3:41 AM AKDT 11:48 PM AKDT
Moon 9:08 PM AKDT (9/12) 1:01 PM AKDT (9/12)
Length of Visible Light 15h 04m
Length of Day
13h 23m
Waning Gibbous, 82% of the Moon is Illuminated
Sep 12
Waning Gibbous
Sep 15
Last Quarter
Sep 23
New
Oct 1
First Quarter
Oct 8
Full

Hourly Weather History & Observations

Time (AKDT) Temp. Windchill Dew Point Humidity Pressure Visibility Wind Dir Wind Speed Gust Speed Precip Events Conditions
12:53 AM 48.9 °F - 44.1 °F 83% 29.99 in 10.0 mi NE 4.6 mph - N/A   Mostly Cloudy
1:53 AM 48.0 °F - 43.0 °F 83% 29.98 in 10.0 mi Calm Calm - N/A   Mostly Cloudy
2:53 AM 45.0 °F - 41.0 °F 86% 29.97 in 10.0 mi Calm Calm - N/A   Mostly Cloudy
3:53 AM 45.0 °F 43.5 °F 39.9 °F 82% 29.96 in 10.0 mi NNE 3.5 mph - N/A   Scattered Clouds
4:53 AM 43.0 °F - 39.0 °F 86% 29.95 in 10.0 mi Calm Calm - N/A   Scattered Clouds
5:53 AM 43.0 °F - 39.0 °F 86% 29.94 in 10.0 mi Calm Calm - N/A   Mostly Cloudy
6:53 AM 41.0 °F 38.0 °F 37.0 °F 86% 29.91 in 10.0 mi NNE 4.6 mph - N/A   Mostly Cloudy
7:53 AM 44.1 °F 42.5 °F 39.0 °F 82% 29.89 in 10.0 mi NNE 3.5 mph - N/A   Mostly Cloudy
8:53 AM 50.0 °F - 42.1 °F 74% 29.88 in 10.0 mi NNE 4.6 mph - N/A   Mostly Cloudy
9:53 AM 57.0 °F - 42.1 °F 57% 29.86 in 10.0 mi NNE 5.8 mph - N/A   Mostly Cloudy
10:53 AM 62.1 °F - 41.0 °F 46% 29.84 in 10.0 mi ENE 8.1 mph - N/A   Mostly Cloudy
11:53 AM 64.0 °F - 39.9 °F 41% 29.82 in 10.0 mi East 9.2 mph - N/A   Mostly Cloudy
12:53 PM 66.9 °F - 39.9 °F 37% 29.79 in 10.0 mi East 9.2 mph - N/A   Mostly Cloudy
1:53 PM 68.0 °F - 39.0 °F 35% 29.77 in 10.0 mi East 10.4 mph - N/A   Mostly Cloudy
2:53 PM 69.1 °F - 39.9 °F 35% 29.75 in 10.0 mi East 8.1 mph - N/A   Mostly Cloudy
3:53 PM 69.1 °F - 39.9 °F 35% 29.73 in 10.0 mi East 6.9 mph - N/A   Mostly Cloudy
4:53 PM 71.1 °F - 41.0 °F 34% 29.71 in 10.0 mi East 10.4 mph - N/A   Mostly Cloudy
5:53 PM 69.1 °F - 43.0 °F 39% 29.69 in 10.0 mi East 10.4 mph - N/A   Mostly Cloudy
6:53 PM 66.0 °F - 44.1 °F 45% 29.68 in 10.0 mi East 8.1 mph - N/A   Mostly Cloudy
7:53 PM 64.9 °F - 44.1 °F 47% 29.68 in 10.0 mi East 6.9 mph - N/A   Mostly Cloudy
8:53 PM 60.1 °F - 44.1 °F 55% 29.67 in 10.0 mi NNE 6.9 mph - N/A   Mostly Cloudy
9:53 PM 57.9 °F - 44.1 °F 60% 29.65 in 10.0 mi NE 6.9 mph - N/A   Mostly Cloudy
10:53 PM 57.9 °F - 44.1 °F 60% 29.65 in 10.0 mi North 4.6 mph - N/A   Mostly Cloudy
11:53 PM 55.9 °F - 45.0 °F 67% 29.65 in 10.0 mi NNE 4.6 mph - N/A   Mostly Cloudy